Strona główna
METAR-TAF:

METAR-TAF

Lotnisko :

Platforma wiertnicza

Euro, Holandia

Szerokość geograficzna: 51-59-52N, Długość geograficzna: 3-16-30E, wysokość: 18 m

Aktualna obserwacja pogody

Raport powstał 25 minut temu, godzina 00:55 UTC
Wiatr 18 kt od wschód
Temperatura 21°C
Wilgotność 83%
Ciśnienie 1014 hPa
Widzialność 10 km lub więcej

METAR: EHSA 240055Z AUTO 08018KT 9999 ///////// 21/18 Q1014 W17/H5

czas: 03:20 (01:20 UTC)


TAF: brakujący

Obserwacja i prognoza pogody dla ponad 4000 lotnisk (raport METAR i TAF).

Dostępne stacje oznaczono żółtymi i czerwonymi punktami na mapie.

Najedź kursorem aby zobaczyć nazwę stacji.

Kliknij aby zobaczyć obserwacje i prognozy pogody.

Aby zmienić mapę: kliknij na zielony przycisk z czarnym krzyżykiem, aby powiększyć; na zielony przycisk z myślnikiem, aby pomniejszyć; na zielone strzałki, aby przejść do map sąsiednich.


METAR-TAF: